Tracking 23114 objects as of 14-May-2021
HD Live streaming from Space Station
objects crossing your sky now

CZ-2C R/B

Track CZ-2C R/B now!
10-day predictions


NORAD ID: 40287
Int'l Code: 2014-066B
Perigee: 678.5 km
Apogee: 692.8 km
Inclination: 97.9 °
Period: 98.3 minutes
Semi major axis: 7056 km
RCS: Unknown
Launch date: October 27, 2014
Source: People's Republic of China (PRC)
Launch site: Jiuquan Satellite Launch Center, China (JSC)

Note: This is a ROCKET BODY
aabbcc
Your satellite tracking list
Your tracking list is empty




NASA's NSSDC Master Catalog

Two Line Element Set (TLE):
1 40287U 14066B   21133.73499854  .00000078  00000-0  23351-4 0  9990
2 40287  97.9471 212.9778 0010133  85.3489 274.8872 14.64542416349811
Source of the keplerian elements: AFSPC